Theta_e
310 311 310 310 310 310 310 310 310 310 309 310 309 309 309 309 308 301 297 302 297 293 292 295 294 291 291 288 286 288 290 289 287 286 287 285 284 286 288 295 296 295 295 294 295 293 290 310 312 302 307 317 318 320
310 310 310 310 310 310 310 310 310 310 309 309 309 309 309 309 308 307 297 301 302 296 292 298 298 299 297 295 291 289 290 291 293 287 287 290 288 289 288 288 301 294 299 298 299 300 307 315 316 323 325 323 323 325
310 310 310 310 310 310 310 310 310 310 309 309 309 309 309 309 308 307 298 299 301 295 294 292 291 297 299 298 300 290 292 295 294 298 290 290 286 295 289 293 298 303 308 302 303 308 309 310 313 321 322 320 322 323
309 310 310 310 310 310 310 310 310 310 310 309 309 309 309 309 308 307 297 301 300 295 287 289 297 294 299 297 298 298 296 298 297 297 289 287 287 297 294 296 298 302 306 304 304 308 311 310 311 316 319 319 318 318
309 309 309 309 309 309 310 309 309 310 310 310 309 310 310 310 309 304 300 300 303 295 288 290 295 297 298 300 298 298 297 295 292 290 290 290 296 296 300 299 300 304 303 301 302 309 305 308 312 319 315 315 315 315
308 308 309 309 309 309 309 309 309 309 309 309 310 309 310 310 309 297 294 303 305 302 293 287 292 294 298 302 300 297 297 295 295 292 293 296 301 298 293 295 302 306 308 309 309 312 310 313 313 313 313 314 316 315
308 309 308 309 309 309 309 309 309 309 309 309 310 310 310 309 305 296 294 300 306 302 292 288 288 294 302 301 299 296 298 295 296 296 295 297 298 300 297 293 302 308 313 313 315 314 310 312 310 313 313 314 316 317
308 308 308 308 309 309 309 309 310 310 310 310 309 310 310 309 308 301 304 306 305 298 296 288 288 292 304 298 297 301 295 300 299 297 298 297 299 300 294 300 305 310 311 312 313 314 313 314 313 313 314 313 312 313
308 308 308 308 308 308 309 309 309 310 310 310 310 310 306 303 299 301 309 307 305 298 290 290 287 287 301 300 301 301 301 294 301 296 297 297 296 294 300 303 305 307 307 307 309 309 310 309 309 311 312 312 310 310
308 308 308 308 308 308 308 309 309 309 309 310 305 300 296 301 311 309 303 297 295 296 294 286 292 289 295 299 297 297 300 295 291 294 298 293 294 301 304 306 308 308 309 310 305 304 306 306 306 307 309 312 314 314
308 308 308 308 308 308 308 309 309 309 308 300 296 295 301 311 304 300 293 288 290 287 289 288 291 290 301 295 293 300 294 293 286 292 292 290 292 299 304 305 308 310 310 310 310 310 308 307 308 309 311 313 315 315
308 308 308 308 308 308 308 309 309 303 300 300 301 303 300 299 298 296 292 289 286 287 295 295 296 296 300 304 296 297 290 291 289 300 291 287 295 301 303 304 306 308 309 310 311 311 313 314 312 313 314 314 315 317
307 307 307 307 308 308 308 309 309 308 307 303 299 299 296 294 290 291 288 290 293 298 300 301 300 301 302 300 297 297 293 293 301 290 286 291 299 302 305 307 308 309 310 311 311 313 314 315 315 314 313 314 315 316
307 307 307 307 307 308 309 309 309 307 302 298 295 289 292 292 294 295 297 298 302 302 303 303 301 301 302 299 300 295 295 296 290 287 290 300 304 305 307 309 309 309 311 311 312 313 313 312 313 314 314 315 315 314
307 307 307 307 309 309 309 308 309 304 302 297 295 286 292 297 300 302 304 303 304 304 303 302 301 299 297 296 296 295 291 287 287 288 297 303 305 306 306 308 308 307 307 307 309 310 310 311 311 313 315 315 317 315
308 307 306 309 309 308 308 308 308 306 304 301 299 297 300 298 299 302 303 302 306 304 302 300 297 296 295 294 292 289 289 287 293 299 302 305 305 306 307 309 308 308 307 308 307 306 307 307 305 306 309 310 313 312
307 301 308 309 308 307 309 306 307 304 299 299 296 302 299 300 299 301 302 302 306 303 298 297 295 294 298 294 293 294 292 296 300 302 304 304 305 307 308 307 309 307 307 303 303 302 301 302 302 301 301 305 307 310
301 305 308 307 307 306 306 307 303 302 299 299 295 299 301 301 300 301 302 303 302 299 300 297 301 295 293 290 293 298 301 303 305 305 305 306 307 308 309 307 306 304 302 301 300 300 300 299 299 299 300 302 304 303
303 305 307 308 306 303 303 303 304 297 299 300 299 301 300 301 302 305 304 304 303 302 298 298 294 292 293 298 299 301 303 302 303 304 306 307 305 307 304 305 304 300 299 298 298 297 296 295 295 297 299 298 297 299
307 309 310 310 309 303 302 300 305 298 297 300 301 300 300 300 302 303 303 303 300 297 295 292 293 297 295 293 295 299 302 304 298 297 298 302 305 303 302 302 299 297 298 296 296 296 296 296 297 297 297 298 298 297
309 310 312 310 307 305 302 299 299 300 300 299 300 300 299 300 299 300 300 300 298 297 294 295 293 295 297 297 297 297 297 298 295 296 295 296 299 298 300 301 300 298 297 295 294 294 295 294 295 297 297 298 298 298
308 312 308 312 306 306 302 304 300 302 300 299 299 300 297 296 296 297 298 297 296 300 302 301 299 297 296 295 295 295 295 296 296 297 297 297 297 295 295 296 297 295 295 294 294 294 295 296 297 297 298 297 298 297
309 308 307 309 303 295 297 306 301 301 297 298 300 299 299 299 299 302 295 296 298 300 301 299 299 299 298 298 295 295 294 294 294 294 294 294 295 295 294 294 295 296 294 294 295 295 293 293 293 293 294 294 293 294
309 304 303 302 302 295 305 301 304 304 303 301 297 295 297 299 303 298 293 296 299 302 299 299 299 298 296 294 292 293 294 293 292 293 294 294 293 292 292 291 292 293 292 292 292 292 291 291 291 291 291 291 292 291
297 297 301 290 303 301 302 301 302 299 296 299 297 295 294 296 297 295 292 293 296 297 297 298 298 299 292 290 290 291 291 291 289 289 292 292 290 291 290 289 289 290 290 290 289 289 288 289 289 289 290 291 290 290
294 304 297 302 299 298 298 298 298 300 299 298 298 297 297 295 292 289 291 294 295 296 297 296 295 294 291 290 288 288 287 288 289 288 287 289 289 288 286 286 286 288 290 289 289 288 288 289 289 289 289 289 290 289
294 298 301 303 302 301 300 301 303 298 296 296 299 297 295 292 289 292 296 298 299 302 304 302 298 290 290 289 289 289 288 290 287 286 287 288 288 289 287 286 285 286 289 290 290 289 288 288 288 288 288 287 287 288
301 302 300 303 304 304 300 298 297 294 295 297 297 293 292 292 290 295 298 303 304 302 301 295 293 292 290 289 289 288 287 287 287 286 286 286 287 287 288 288 288 291 289 289 289 289 288 288 287 288 287 286 286 287
302 305 306 301 303 302 300 298 296 296 297 296 294 292 293 296 299 299 300 301 298 296 292 290 289 290 290 290 290 288 287 285 284 282 282 281 282 284 287 288 288 289 288 288 291 291 291 288 288 287 287 286 286 286
307 307 302 303 300 298 300 301 299 299 298 298 298 297 297 298 301 303 298 295 293 290 290 291 289 289 287 287 286 285 286 285 284 283 281 281 282 285 286 286 287 287 287 288 287 287 290 288 288 286 286 285 284 284
309 307 304 303 301 301 302 303 302 302 300 298 299 299 298 298 300 302 297 294 292 291 290 289 289 289 288 287 286 284 283 285 286 285 285 284 284 285 286 286 286 286 286 287 286 286 286 285 285 285 285 285 286 286
303 301 300 301 301 305 306 302 301 300 301 299 298 300 299 298 296 299 297 295 292 290 292 290 288 287 288 288 289 288 289 286 286 286 285 285 285 286 285 286 286 287 287 287 287 286 286 285 285 285 285 286 286 287
303 304 303 302 303 304 305 304 304 300 299 299 300 302 301 298 292 295 297 295 292 291 290 290 291 291 290 290 290 289 290 287 288 289 288 288 287 286 284 285 286 287 287 287 287 287 287 286 285 286 286 286 286 286
Wind_Speed
16 17 17 17 18 18 18 18 17 18 18 17 16 16 15 13 11 2 4 3 4 4 9 17 14 13 10 5 7 5 6 1 2 5 4 4 4 5 4 6 7 5 5 3 2 7 8 27 19 8 8 3 8 5
16 16 17 17 17 17 17 16 16 16 18 18 18 18 17 14 13 6 3 2 3 4 7 10 12 16 16 19 7 4 5 3 2 2 1 5 4 4 3 5 9 8 6 7 7 6 11 20 10 8 6 10 4 7
16 17 17 16 16 17 17 17 17 17 18 19 18 18 16 15 14 10 3 3 3 3 7 7 10 14 14 18 18 8 7 7 5 3 1 3 8 4 5 5 4 7 5 3 5 2 12 20 19 13 11 12 9 9
17 17 18 17 17 17 17 18 19 19 19 21 21 20 18 15 13 12 2 3 2 3 5 8 6 10 8 9 14 23 19 2 3 2 3 4 5 7 2 4 4 3 6 5 2 5 12 12 17 9 9 13 15 13
17 18 19 19 19 19 19 20 21 21 21 21 22 21 19 17 14 7 5 5 6 3 4 9 17 9 8 8 14 16 18 16 3 3 3 5 4 6 2 5 2 2 2 6 3 4 3 5 13 9 12 13 11 12
20 19 20 22 21 21 23 23 24 24 24 22 21 21 19 14 9 3 4 3 5 4 4 5 5 7 8 3 5 8 12 7 6 5 5 4 4 4 3 1 4 4 3 2 8 4 3 3 17 18 16 16 14 13
21 21 21 22 23 24 25 25 25 26 25 23 21 18 17 12 3 4 5 2 7 2 2 5 4 6 6 4 0 3 6 4 4 3 3 3 4 3 3 3 6 7 4 12 10 6 7 14 7 15 17 15 13 13
20 22 21 24 24 26 27 26 26 26 27 25 23 20 14 11 7 6 7 16 8 2 3 3 6 4 4 4 4 3 3 3 1 2 3 3 4 2 3 9 9 7 14 14 12 8 2 3 10 15 16 19 18 14
20 22 22 24 27 28 28 28 28 28 30 28 23 15 3 2 3 3 10 9 3 1 2 3 3 4 6 1 1 2 3 2 1 3 1 2 3 2 5 8 7 13 8 11 12 10 8 12 12 12 17 16 10 10
21 22 23 24 26 28 28 28 27 28 32 24 3 2 3 3 10 8 2 1 1 2 3 3 2 4 2 1 2 1 0 2 0 2 3 2 3 6 10 8 9 13 12 12 12 9 9 7 8 7 6 6 3 6
21 23 24 24 26 29 28 27 25 24 11 5 5 2 4 6 1 1 1 3 3 3 4 4 6 4 3 2 2 0 2 3 2 2 2 5 5 7 9 11 9 9 9 9 8 7 6 2 3 7 8 8 5 6
22 23 23 24 25 28 28 23 21 6 3 3 5 5 4 3 3 2 1 1 3 4 3 4 4 6 2 1 3 3 2 2 4 2 3 3 4 10 11 11 13 11 11 7 4 4 3 1 1 3 2 1 1 1
22 23 24 24 26 27 26 21 18 14 11 1 2 3 3 5 6 6 7 4 6 3 3 3 0 2 3 2 2 2 2 3 2 4 2 3 4 5 8 5 4 5 7 6 4 4 7 3 8 4 5 4 3 5
22 23 23 24 26 24 21 19 16 8 2 3 4 10 5 7 5 5 11 9 9 4 5 2 2 1 1 2 3 5 5 5 4 6 8 7 7 3 1 4 3 3 4 3 5 7 10 8 8 8 8 6 6 6
21 22 24 20 16 19 22 22 13 2 2 4 6 7 5 6 7 11 11 10 12 11 3 2 4 4 5 6 6 6 6 6 5 5 6 8 10 8 6 3 5 9 8 9 6 7 7 8 9 7 5 3 6 7
20 20 5 11 21 26 27 10 1 2 1 2 2 3 8 6 10 12 12 13 14 13 3 5 6 6 10 5 7 8 4 5 4 4 4 5 8 8 10 9 9 9 10 10 12 15 13 15 12 8 11 9 7 9
14 5 10 19 24 27 11 2 2 2 4 6 5 3 3 3 5 8 10 9 7 10 12 5 9 9 4 5 5 5 7 6 5 4 4 4 4 2 4 7 8 10 12 14 13 14 13 14 15 15 14 12 11 11
4 6 17 21 17 8 4 1 3 4 5 3 5 7 5 3 6 8 11 13 8 7 6 6 4 9 6 5 7 2 3 3 3 5 5 5 7 7 7 8 10 10 11 11 12 12 14 14 13 9 12 9 10 9
9 13 22 22 6 3 4 5 4 4 3 2 3 3 3 4 5 9 10 11 11 7 5 5 8 6 5 4 4 5 4 3 3 3 4 6 7 6 7 7 7 8 9 7 9 6 5 7 6 6 6 6 6 8
19 16 14 8 4 2 5 6 3 4 3 3 2 4 4 4 5 7 9 10 6 5 10 7 6 2 3 4 2 2 3 5 5 8 9 11 9 8 6 5 5 6 7 7 7 9 8 9 7 7 5 9 9 9
8 5 8 3 2 1 1 1 4 2 1 1 2 3 3 3 6 7 7 5 7 7 5 3 2 3 4 3 7 9 10 6 5 3 2 5 8 10 11 10 11 10 9 7 6 7 10 8 7 9 8 8 6 6
4 8 3 2 1 3 2 2 3 3 2 3 1 2 3 3 3 3 3 8 7 5 4 4 4 4 7 10 6 6 5 11 10 12 15 8 8 9 9 8 9 8 9 7 6 7 9 9 9 10 9 5 6 4
8 1 2 1 2 4 6 2 0 2 1 2 4 5 4 3 2 3 5 5 4 3 4 4 4 3 4 5 8 7 8 11 10 10 10 5 6 7 8 9 9 9 9 8 7 8 8 9 10 8 7 7 5 5
4 2 3 2 3 4 2 2 2 1 1 3 4 3 2 2 4 4 3 3 3 5 6 8 6 6 6 7 6 7 7 6 8 10 11 5 7 7 7 7 8 7 4 4 6 6 6 6 7 7 7 8 9 10
4 2 3 5 3 5 3 5 2 4 3 2 4 3 1 3 2 4 1 3 4 4 5 5 6 5 4 4 4 6 8 6 7 10 9 7 6 6 6 5 6 6 4 6 6 5 4 5 6 6 6 8 8 8
4 3 4 3 2 3 4 5 3 2 1 2 3 4 2 3 4 2 2 3 3 3 4 3 4 4 5 4 4 5 4 4 7 7 5 5 6 5 4 4 6 6 5 4 5 5 6 6 7 9 10 10 11 8
3 3 2 1 1 1 4 4 3 4 5 5 3 3 3 4 3 3 3 3 2 3 4 3 4 4 4 3 4 4 3 7 7 2 2 5 5 5 4 5 6 5 5 6 4 5 5 5 5 6 5 5 7 6
4 1 2 1 2 3 3 4 4 4 3 4 4 5 3 2 3 3 4 4 3 3 4 5 5 4 5 5 5 4 4 4 6 6 5 5 5 5 6 5 5 12 6 5 4 5 5 5 6 6 6 5 5 5
3 3 3 4 3 1 2 2 2 1 2 2 3 2 3 3 3 3 3 3 3 5 4 3 3 4 5 6 6 5 4 4 7 7 7 4 5 5 5 6 5 6 6 5 7 8 7 5 4 4 4 3 3 4
5 5 4 4 3 3 3 5 4 2 2 4 5 2 1 2 3 2 1 4 4 3 3 5 3 4 4 5 5 5 3 4 4 3 3 3 3 4 5 5 5 6 5 6 4 5 8 5 6 5 6 5 5 5
4 6 3 3 2 3 5 5 4 4 3 2 2 3 4 3 2 1 3 3 4 5 5 5 5 4 5 4 3 5 2 2 3 5 4 2 4 4 5 5 5 5 5 6 3 4 4 4 5 5 6 7 7 6
3 3 2 4 2 2 4 4 5 4 4 4 2 2 1 2 2 2 1 4 5 5 4 6 5 3 3 3 4 4 7 5 4 3 2 0 1 3 4 4 5 6 6 6 6 5 6 6 5 6 5 7 7 7
2 1 1 3 3 4 4 5 4 2 2 3 3 5 5 5 3 3 2 3 5 4 4 4 5 5 5 5 5 4 5 5 7 6 6 4 3 3 3 4 4 5 8 5 5 6 7 7 6 6 6 7 7 7
Wind_Direction
332 333 336 336 335 333 333 331 334 338 340 335 332 328 323 322 325 30 258 216 196 260 266 260 245 260 267 230 259 291 327 303 293 220 243 214 217 249 254 279 152 116 146 132 279 261 262 344 314 154 173 111 129 108
329 328 326 327 326 328 323 326 329 331 332 331 329 326 326 324 316 315 256 263 178 242 255 284 256 247 229 230 242 224 253 227 221 279 310 306 288 251 260 246 150 167 208 164 155 242 319 304 305 8 90 113 68 95
327 326 323 321 321 318 321 323 321 319 321 322 321 319 315 313 312 312 237 252 265 259 272 253 236 251 235 231 223 242 246 214 180 187 19 285 263 300 224 225 191 172 168 156 56 113 346 358 349 356 41 74 77 83
325 323 318 319 316 316 316 315 311 313 314 314 311 310 309 303 302 305 220 233 193 262 275 276 260 264 239 234 205 207 223 300 125 188 158 240 257 268 286 273 237 176 132 116 347 356 310 341 351 329 21 58 60 53
318 318 314 313 312 312 309 306 304 303 304 307 310 309 305 304 299 287 246 230 207 203 269 290 304 258 228 247 211 203 219 231 197 224 199 247 239 262 250 242 196 342 153 143 100 285 277 334 354 16 39 45 41 60
317 316 313 310 310 310 306 306 307 306 304 304 304 305 303 295 298 0 311 221 173 176 278 291 284 283 296 263 193 196 217 206 204 199 235 260 252 278 241 301 267 256 205 247 109 203 201 124 47 36 46 39 47 51
316 316 315 310 311 311 309 311 311 307 306 308 305 296 287 276 189 185 210 214 148 163 257 280 280 273 295 294 236 137 173 174 168 214 267 277 285 268 305 303 334 332 124 162 151 188 55 39 59 50 48 33 28 50
318 316 317 314 316 315 315 316 314 310 309 310 305 293 281 257 249 249 251 246 217 220 239 282 276 293 6 357 356 4 131 102 58 254 238 257 290 265 319 321 342 32 81 79 83 83 93 126 59 70 58 45 21 18
316 315 315 316 316 317 318 318 318 316 317 314 308 297 86 149 200 238 112 102 94 185 271 238 271 295 357 1 261 318 17 54 185 242 353 318 294 310 337 6 356 67 54 95 76 69 62 73 69 50 64 70 14 358
311 312 313 315 313 314 317 318 320 323 319 319 19 38 327 230 131 139 163 179 143 182 212 235 248 261 302 279 62 351 320 164 340 325 292 344 340 328 20 35 33 61 50 54 78 54 41 49 62 57 58 77 39 326
308 309 311 312 313 313 316 318 321 328 328 13 357 324 288 179 252 206 1 12 350 258 202 225 222 233 216 243 205 82 85 21 42 344 29 10 4 7 14 33 21 69 75 67 57 49 25 34 60 78 43 40 16 351
307 308 309 311 311 310 311 314 320 342 278 259 292 293 283 280 280 305 28 312 253 263 231 214 220 187 217 322 28 59 88 202 46 60 56 40 6 355 13 19 20 22 32 34 15 14 341 322 4 35 69 179 99 341
306 306 307 308 308 306 304 309 312 297 299 326 339 293 29 324 7 336 316 297 298 224 250 263 101 133 147 141 180 213 64 59 13 40 49 217 268 284 292 298 339 332 322 332 332 275 264 258 219 207 107 68 37 352
306 305 306 307 304 300 304 311 315 320 46 13 345 337 50 317 341 313 311 308 307 242 300 247 126 142 130 111 6 44 29 21 38 28 28 20 13 326 327 318 314 37 17 303 291 74 59 55 55 48 50 45 54 44
306 307 306 298 296 314 319 321 320 168 65 1 33 8 342 302 301 321 337 342 357 352 356 29 39 50 19 45 18 15 35 38 30 344 20 5 24 25 8 357 54 46 43 31 38 49 44 39 44 47 61 46 46 41
313 312 257 327 338 330 322 326 64 74 294 43 103 48 326 318 333 351 358 0 348 349 13 37 37 34 39 31 17 23 34 23 2 353 342 343 358 23 17 42 34 35 30 26 47 51 48 48 44 32 30 25 28 41
317 238 294 338 336 321 316 355 352 299 56 23 344 333 294 298 311 349 360 346 324 17 29 36 40 29 348 23 31 21 18 23 351 6 337 17 88 260 327 59 53 28 50 53 51 48 46 38 37 34 28 24 30 37
247 283 320 323 340 318 313 347 26 57 38 355 22 333 341 317 347 1 8 13 13 2 18 50 66 17 39 48 59 60 350 349 335 319 330 336 3 21 38 39 61 60 63 59 56 48 44 38 34 27 28 7 34 27
277 294 298 303 314 327 346 330 73 76 12 360 316 326 348 321 2 23 20 17 26 24 29 38 53 26 14 6 10 348 323 19 333 317 320 355 41 52 56 62 65 59 70 63 62 49 40 34 25 18 21 22 37 14
298 283 282 288 172 28 351 340 45 63 3 283 348 0 34 17 4 24 25 20 8 19 41 43 49 360 44 326 313 325 326 325 24 28 9 2 357 15 27 58 57 66 63 45 39 38 38 28 10 9 7 40 55 29
317 312 331 113 106 161 152 360 344 204 310 0 276 48 356 1 25 21 22 351 41 48 36 41 44 338 324 339 27 28 23 15 8 33 321 19 22 40 44 41 44 43 42 31 33 16 30 22 1 13 31 56 57 55
268 353 343 284 297 7 21 268 177 260 85 240 26 77 39 17 4 3 18 33 39 8 4 27 348 356 35 40 18 23 20 28 18 20 15 17 52 48 45 39 41 37 34 26 24 33 37 29 25 25 28 24 45 47
301 11 279 305 23 39 255 62 22 222 86 304 43 21 1 8 328 17 49 10 2 334 1 20 342 351 51 21 30 14 20 35 24 15 9 30 47 46 49 43 37 47 45 30 35 48 42 21 26 28 19 15 13 21
12 342 319 305 126 264 301 272 247 240 169 148 99 133 294 329 340 70 72 353 321 345 356 350 355 355 11 39 38 26 8 37 35 18 12 45 62 53 53 43 35 34 42 30 36 44 36 30 17 12 11 16 36 59
53 331 86 331 10 358 320 358 276 13 340 348 91 106 237 9 58 59 33 318 324 321 319 330 345 4 48 55 37 30 15 32 44 38 23 24 33 40 26 24 25 18 14 40 31 44 27 16 8 5 17 44 53 68
55 346 70 16 4 19 335 321 320 316 30 49 88 131 142 69 65 54 296 273 280 285 310 334 348 17 28 74 88 48 7 2 50 39 2 23 24 39 36 31 14 354 354 31 57 44 29 13 10 29 50 39 37 52
40 331 331 106 150 298 279 254 269 39 4 355 18 73 75 60 40 291 283 265 263 302 290 310 52 80 75 80 84 76 56 48 65 29 340 19 28 24 41 43 17 302 334 8 36 43 35 27 32 37 45 35 30 28
185 207 215 281 260 201 300 10 46 11 331 314 55 37 74 96 204 244 229 269 275 311 34 69 72 92 93 78 93 84 53 54 52 31 12 5 13 14 3 356 358 357 3 5 42 28 37 42 40 44 56 48 15 3
206 200 173 279 234 229 102 133 148 239 264 54 84 112 171 211 219 233 274 297 343 72 71 88 27 60 67 79 78 64 59 52 50 37 31 7 1 337 350 358 359 359 350 2 29 39 57 68 61 61 54 48 4 2
245 153 193 241 186 161 228 140 136 172 68 128 131 102 94 268 240 230 354 47 60 58 49 111 112 82 82 96 109 71 42 75 77 81 31 356 316 325 357 1 356 350 347 355 32 11 13 24 15 22 32 28 20 15
147 155 230 199 152 165 159 135 139 134 136 163 177 131 159 183 295 288 117 119 98 62 54 71 56 63 84 63 91 136 119 2 81 66 68 38 16 9 355 353 345 341 338 339 358 17 21 34 37 37 37 34 20 20
138 205 161 128 180 145 97 151 170 161 147 120 156 107 106 86 217 255 303 101 83 71 62 105 103 87 99 74 62 118 139 157 152 142 119 125 345 353 358 352 353 342 339 359 11 28 45 49 38 34 31 25 15 6
334 333 350 113 110 178 189 151 169 155 126 147 155 171 187 176 158 190 10 58 127 128 120 132 131 121 106 81 66 157 164 170 181 182 212 231 250 294 339 336 345 352 350 6 14 16 26 32 32 25 15 15 8 353